星链-5030 (STARLINK-5030 )

导读

STARLINK-5030是美国SpaceX星链卫星互联网项目的卫星,于2023年1月31日发射升空,归属美国所有。作为星链组网卫星,它承担卫星互联网通信组网任务,运行在近地轨道,属于低轨通信卫星,服务星链全球高速互联网与天基信息传输网络建设,拓展了星链星座的覆盖范围与服务能力。

Basic Information
目录编号:
55418
目录名称:
STARLINK-5030
国际标识:
2023-014AD
轨道中心:
EARTH
卫星名称:
星链-5030
卫星全名:
星链-5030 (STARLINK-5030 )
卫星状态:
在轨 (已飞行1320 天)
发射日期:
2023-01-31 UTC
国别 :
美国 (US)
星等 :
--
This satellite is enrolled in the Space Conjunction Data Service (SCDS) and the current flight risk assessment level is: No High Risk
Orbit Information
数据来源 国际轨道数据
星历时间: 2026-09-11T21:27:38+0800
1天前
查看轨道信息
半长轴: 6950.201km
偏心率: 0.0003193
轨道倾角: 70.000°
近地点辐角 269.188°
升交点赤经 335.822°
平近点角 90.891°
近地点: 569.844km
远地点: 574.284km
周期: 96.107分钟
每日圈数: 14.983276
Detailed Information
固有亮度:
5
最大亮度:
2.5
卫星平台:
Starlink v1.5
覆盖范围:
全球
运营商:
太空探索技术公司
运营商所在国:
美国
制造商(研发单位):
太空探索技术公司
制造商所在国:
美国
使用方式:
暂无
Satellite Introduction
星链(Starlink)计划是由太空探索技术公司(SpaceX)提出的一个巨型低轨卫星互联网星座项目,计划在2019年至2024年间在太空搭建由约1.2万颗卫星组成的“星链”网络,其中1584颗将部署在地球上空550千米处的近地轨道,并从2020年开始工作。该卫星仍在工作。
2D Orbit Map
3D Orbit Map
Orbit Altitude Analysis Chart
Orbit Inclination Analysis Chart
Orbit Comprehensive Analysis Chart
View Comprehensive Chart
Conjunction Data List
Event ID Objects TCA Miss Dist (km) Collision Risk Probability Collision Risk Index (CRI) Action
CDM_260913-141505-541806-326324
SOAP (63263)
2026-09-13T
14:15:37+0000
2.123 km
极远距离
2.494444E-6 低风险 0.43
CDM_260913-134604-005705-541826
VELOX 1 (40057)
2026-09-13T
13:46:15+0000
2.219 km
极远距离
2.242818E-6 低风险 0.42
CDM_260913-055801-226905-541823
2026-09-13T
05:58:42+0000
2.032 km
极远距离
2.07107E-6 低风险 0.41
CDM_260913-143404-005705-541824
VELOX 1 (40057)
2026-09-13T
14:34:21+0000
2.887 km
极远距离
1.411596E-6 低风险 0.38
Miss Distance Evolution Trend with All Objects
Collision Probability Evolution Trend with All Objects